Home > Weather > Chesapeake > Past weeks

Flag for U.S.A. Weather for the Past 2 Weeks in Chesapeake, Virginia, U.S.A.

Now
37 °F

Clear.


Feels Like: 37 °F
Forecast: 31 / 45 °F
Wind: No wind

Location: Chesapeake Municipal Airport

Current Time: Feb 7, 2016 at 3:42:57 AM

Latest Report: Feb 7, 2016 at 3:15 AM


Visibility: 10 mi

Pressure: 30.21 "Hg

Humidity: 65%

Dew point: 27 °F

Location of ChesapeakeLocation

Historic Weather in Chesapeake — Graph

°F

Chesapeake Temperature Yesterday

Maximum temperature yesterday: 46 °F (at 12:35 PM)
Minimum temperature yesterday: 28 °F (at 5:55 AM)
Average temperature yesterday: 37 °F

High & Low Weather Summary for the Past Weeks

 TemperatureHumidityPressure
High77 °F (Feb 3, 12:55 PM)93% (Jan 23, 5:15 AM)30.48 "Hg (Jan 23, 5:15 AM)
Low25 °F (Jan 30, 5:15 AM)16% (Jan 30, 3:55 PM)29.27 "Hg (Jan 23, 3:15 AM)
Average47 °F63%30.05 "Hg
* Reported Jan 23 2:15 AM — Feb 7 2:15 AM, Chesapeake, Weather by CustomWeather, © 2016

Note: Actual official high and low records may vary slightly from our data, if they occured in-between our weather recording intervals... More about our weather records

Advertising

Chesapeake Weather History for the Previous 24 Hours

 ConditionsComfort  
Time TempWeatherWind HumidityBarometerVisibility
2:15 AM
Sun, Feb 7
37 °FOvercast.No wind70%30.23 "Hg10 mi
1:55 AM36 °FOvercast.No wind81%30.26 "Hg10 mi
1:35 AM36 °FOvercast.No wind75%30.25 "Hg10 mi
1:15 AM36 °FOvercast.No wind75%30.25 "Hg10 mi
12:55 AM36 °FOvercast.No wind75%30.25 "Hg10 mi
12:35 AM36 °FOvercast.No wind75%30.26 "Hg10 mi
12:15 AM36 °FPassing clouds.No wind75%30.25 "Hg10 mi
11:55 PM
Sat, Feb 6
36 °FPassing clouds.No wind70%30.26 "Hg10 mi
11:35 PM34 °FOvercast.No wind81%30.27 "Hg10 mi
11:15 PM34 °FPassing clouds.No wind81%30.29 "Hg10 mi
10:35 PM32 °FClear.No wind80%30.30 "Hg10 mi
10:15 PM32 °FClear.No wind80%30.30 "Hg10 mi
9:55 PM34 °FClear.No wind75%30.31 "Hg10 mi
9:15 PM36 °FClear.3 mph70%30.30 "Hg10 mi
8:35 PM32 °FClear.No wind80%30.35 "Hg10 mi
8:15 PM36 °FClear.No wind70%30.35 "Hg10 mi
7:55 PM37 °FClear.No wind70%30.35 "Hg10 mi
7:15 PM37 °FClear.No wind70%30.35 "Hg10 mi
6:55 PM39 °FClear.3 mph61%30.35 "Hg10 mi
6:15 PM41 °FClear.No wind53%30.36 "Hg10 mi
5:55 PM43 °FClear.No wind46%30.35 "Hg10 mi
5:35 PM45 °FSunny.No wind34%30.35 "Hg10 mi
5:15 PM46 °FSunny.No wind27%30.35 "Hg10 mi
4:55 PM46 °FSunny.No wind27%30.35 "Hg10 mi
3:55 PM46 °FSunny.5 mph23%30.33 "Hg10 mi
3:35 PM46 °FSunny.No wind25%30.34 "Hg10 mi
3:15 PM46 °FSunny.No wind29%30.34 "Hg10 mi
2:55 PM46 °FSunny.3 mph34%30.35 "Hg10 mi
2:35 PM46 °FSunny.3 mph34%30.35 "Hg10 mi
2:15 PM46 °FSunny.3 mph37%30.36 "Hg10 mi
1:55 PM46 °FSunny.6 mph34%30.36 "Hg10 mi
1:35 PM46 °FSunny.7 mph34%30.37 "Hg10 mi
1:15 PM46 °FSunny.No wind34%30.38 "Hg10 mi
12:55 PM46 °FSunny.5 mph34%30.39 "Hg10 mi
12:35 PM46 °FSunny.5 mph34%30.41 "Hg10 mi
12:15 PM45 °FSunny.No wind37%30.43 "Hg10 mi
11:55 AM45 °FSunny.No wind39%30.44 "Hg10 mi
11:35 AM45 °FSunny.3 mph39%30.45 "Hg10 mi
11:15 AM45 °FSunny.No wind39%30.46 "Hg10 mi
10:55 AM45 °FSunny.No wind46%30.47 "Hg10 mi
10:35 AM43 °FSunny.No wind49%30.48 "Hg10 mi
10:15 AM43 °FSunny.3 mph53%30.48 "Hg10 mi
9:55 AM41 °FSunny.No wind57%30.47 "Hg10 mi
9:35 AM39 °FSunny.No wind65%30.48 "Hg10 mi
9:15 AM37 °FSunny.No wind70%30.48 "Hg10 mi
8:55 AM36 °FSunny.No wind75%30.48 "Hg10 mi
8:15 AM34 °FSunny.No wind81%30.48 "Hg10 mi
7:55 AM30 °FSunny.No wind86%30.48 "Hg10 mi
7:35 AM30 °FSunny.No wind86%30.48 "Hg10 mi
7:15 AM30 °FSunny.No wind86%30.47 "Hg10 mi
6:55 AM28 °FClear.No wind93%30.47 "Hg10 mi
6:35 AM30 °FClear.No wind86%30.47 "Hg10 mi
6:15 AM28 °FClear.No wind93%30.46 "Hg10 mi
5:55 AM28 °FClear.No wind86%30.45 "Hg10 mi
5:15 AM30 °FClear.No wind86%30.44 "Hg10 mi
4:55 AM30 °FClear.No wind86%30.44 "Hg10 mi
4:15 AM30 °FClear.No wind86%30.43 "Hg10 mi
3:55 AM30 °FClear.No wind86%30.43 "Hg10 mi
3:35 AM30 °FClear.No wind86%30.42 "Hg10 mi
3:15 AM30 °FClear.No wind86%30.42 "Hg10 mi
Weather by CustomWeather, © 2016

See weather overviewHow to use our weather pages